TimeEST,TemperatureF,Dew PointF,Humidity,Sea Level PressureIn,VisibilityMPH,Wind Direction,Wind SpeedMPH,Gust SpeedMPH,PrecipitationIn,Events,Conditions,WindDirDegrees,DateUTC
12:54 AM,48.9,25.0,39,30.33,10.0,South,12.7,-,N/A,,Clear,190,2012-03-07 05:54:00
1:54 AM,48.0,26.1,42,30.34,10.0,South,11.5,-,N/A,,Clear,180,2012-03-07 06:54:00
2:54 AM,46.0,27.0,47,30.33,10.0,South,11.5,-,N/A,,Clear,170,2012-03-07 07:54:00
3:54 AM,45.0,27.0,49,30.33,10.0,South,11.5,-,N/A,,Clear,170,2012-03-07 08:54:00
4:54 AM,46.0,28.0,50,30.33,10.0,South,13.8,-,N/A,,Clear,170,2012-03-07 09:54:00
5:54 AM,46.0,28.9,51,30.34,10.0,South,12.7,-,N/A,,Clear,180,2012-03-07 10:54:00
6:54 AM,46.0,30.0,54,30.36,10.0,South,11.5,-,N/A,,Clear,180,2012-03-07 11:54:00
7:54 AM,48.0,33.1,56,30.38,10.0,South,11.5,-,N/A,,Clear,180,2012-03-07 12:54:00
8:54 AM,53.1,37.0,55,30.38,10.0,South,18.4,24.2,N/A,,Clear,190,2012-03-07 13:54:00
9:54 AM,57.0,42.1,57,30.38,10.0,SSW,20.7,33.4,N/A,,Clear,200,2012-03-07 14:54:00
10:54 AM,60.1,44.1,55,30.37,10.0,South,21.9,33.4,N/A,,Clear,190,2012-03-07 15:54:00
11:54 AM,63.0,45.0,52,30.35,10.0,South,28.8,34.5,N/A,,Clear,190,2012-03-07 16:54:00
12:54 PM,64.9,46.0,50,30.32,10.0,SSW,19.6,32.2,N/A,,Scattered Clouds,200,2012-03-07 17:54:00
1:54 PM,66.9,45.0,45,30.29,10.0,SSW,21.9,33.4,N/A,,Scattered Clouds,200,2012-03-07 18:54:00
2:54 PM,66.0,44.1,45,30.27,10.0,South,23.0,33.4,N/A,,Partly Cloudy,190,2012-03-07 19:54:00
3:54 PM,66.9,43.0,42,30.25,10.0,South,23.0,33.4,N/A,,Clear,190,2012-03-07 20:54:00
4:54 PM,64.9,43.0,45,30.23,10.0,South,16.1,26.5,N/A,,Partly Cloudy,170,2012-03-07 21:54:00
5:54 PM,64.0,43.0,46,30.22,10.0,South,17.3,26.5,N/A,,Clear,190,2012-03-07 22:54:00
6:54 PM,60.1,43.0,53,30.22,10.0,South,13.8,-,N/A,,Clear,190,2012-03-07 23:54:00
7:54 PM,57.9,43.0,58,30.22,10.0,South,12.7,-,N/A,,Clear,180,2012-03-08 00:54:00
8:54 PM,57.0,42.1,57,30.22,10.0,South,12.7,-,N/A,,Clear,180,2012-03-08 01:54:00
9:54 PM,57.9,42.1,56,30.21,10.0,South,13.8,-,N/A,,Partly Cloudy,180,2012-03-08 02:54:00
10:54 PM,57.2,42.8,59,30.22,10.0,South,11.5,-,N/A,,Mostly Cloudy,180,2012-03-08 03:54:00
11:54 PM,57.0,43.0,59,30.20,10.0,South,13.8,-,N/A,,Mostly Cloudy,180,2012-03-08 04:54:00